TimeCEST,TemperatureF,Dew PointF,Humidity,Sea Level PressureIn,VisibilityMPH,Wind Direction,Wind SpeedMPH,Gust SpeedMPH,PrecipitationIn,Events,Conditions,WindDirDegrees,DateUTC
12:25 AM,59.0,51.8,77,29.83,6.2,South,8.1,-,N/A,,Overcast,190,2012-10-02 22:25:00
12:55 AM,59.0,50.0,72,29.83,6.2,South,10.4,-,N/A,,Mostly Cloudy,190,2012-10-02 22:55:00
1:25 AM,59.0,50.0,72,29.83,6.2,SSW,10.4,-,N/A,,Overcast,200,2012-10-02 23:25:00
1:55 AM,59.0,50.0,72,29.83,6.2,SSW,11.5,-,N/A,,Light Drizzle,200,2012-10-02 23:55:00
2:25 AM,57.2,51.8,82,29.80,6.2,SSW,11.5,23.0,N/A,,Light Drizzle,200,2012-10-03 00:25:00
2:55 AM,57.2,51.8,82,29.80,6.2,SSW,11.5,-,N/A,,Light Drizzle,210,2012-10-03 00:55:00
2:56 AM,57.2,51.8,82,29.80,6.2,SSW,11.5,-,N/A,,Light Drizzle,210,2012-10-03 00:56:00
3:13 AM,57.2,51.8,82,29.80,6.2,SSW,10.4,-,N/A,,Light Drizzle,200,2012-10-03 01:13:00
3:17 AM,57.2,51.8,82,29.80,6.2,SSW,10.4,-,N/A,,Light Drizzle,200,2012-10-03 01:17:00
3:25 AM,57.2,51.8,82,29.80,6.2,SSW,10.4,21.9,N/A,,Light Drizzle,200,2012-10-03 01:25:00
3:29 AM,57.2,51.8,82,29.80,6.2,SSW,10.4,21.9,N/A,,Mostly Cloudy,200,2012-10-03 01:29:00
3:44 AM,57.2,51.8,82,29.80,6.2,SSW,10.4,-,N/A,,Light Drizzle,200,2012-10-03 01:44:00
3:55 AM,57.2,53.6,88,29.80,6.2,SSW,12.7,-,N/A,Rain,Light Rain,200,2012-10-03 01:55:00
3:57 AM,57.2,53.6,88,29.80,6.2,SSW,10.4,-,N/A,,Light Drizzle,200,2012-10-03 01:57:00
4:04 AM,57.2,53.6,88,29.80,6.2,SSW,10.4,-,N/A,,Mostly Cloudy,200,2012-10-03 02:04:00
4:08 AM,57.2,53.6,88,29.80,6.2,SSW,10.4,-,N/A,,Mostly Cloudy,200,2012-10-03 02:08:00
4:12 AM,57.2,53.6,88,29.80,6.2,SSW,10.4,-,N/A,,Mostly Cloudy,200,2012-10-03 02:12:00
4:25 AM,57.2,51.8,82,29.80,6.2,SSW,10.4,-,N/A,,Mostly Cloudy,200,2012-10-03 02:25:00
4:29 AM,57.2,51.8,82,29.80,6.2,SSW,10.4,-,N/A,,Overcast,200,2012-10-03 02:29:00
4:33 AM,57.2,51.8,82,29.80,6.2,SSW,9.2,-,N/A,,Mostly Cloudy,200,2012-10-03 02:33:00
4:37 AM,57.2,51.8,82,29.80,6.2,SSW,9.2,-,N/A,,Mostly Cloudy,200,2012-10-03 02:37:00
4:43 AM,57.2,51.8,82,29.80,6.2,SSW,10.4,-,N/A,,Mostly Cloudy,200,2012-10-03 02:43:00
4:47 AM,57.2,51.8,82,29.80,6.2,SSW,11.5,-,N/A,,Mostly Cloudy,200,2012-10-03 02:47:00
4:55 AM,57.2,51.8,82,29.80,6.2,SSW,10.4,-,N/A,,Overcast,200,2012-10-03 02:55:00
5:00 AM,57.2,53.6,88,29.77,6.2,SSW,10.4,-,N/A,,Overcast,200,2012-10-03 03:00:00
5:04 AM,57.2,51.8,82,29.77,6.2,SSW,10.4,-,N/A,,Overcast,200,2012-10-03 03:04:00
5:18 AM,57.2,51.8,82,29.77,6.2,SSW,10.4,-,N/A,,Overcast,210,2012-10-03 03:18:00
5:25 AM,57.2,51.8,82,29.77,6.2,SSW,11.5,-,N/A,,Overcast,210,2012-10-03 03:25:00
5:48 AM,57.2,51.8,82,29.77,6.2,SSW,11.5,-,N/A,,Mostly Cloudy,210,2012-10-03 03:48:00
5:55 AM,57.2,51.8,82,29.77,6.2,SSW,10.4,-,N/A,,Overcast,210,2012-10-03 03:55:00
6:01 AM,57.2,51.8,82,29.77,6.2,SSW,12.7,-,N/A,,Overcast,200,2012-10-03 04:01:00
6:06 AM,57.2,51.8,82,29.77,6.2,SSW,12.7,-,N/A,,Overcast,210,2012-10-03 04:06:00
6:10 AM,57.2,51.8,82,29.77,6.2,SSW,12.7,-,N/A,,Mostly Cloudy,210,2012-10-03 04:10:00
6:25 AM,57.2,51.8,82,29.77,6.2,SSW,11.5,-,N/A,,Mostly Cloudy,210,2012-10-03 04:25:00
6:29 AM,57.2,51.8,82,29.77,6.2,SSW,11.5,-,N/A,,Overcast,210,2012-10-03 04:29:00
6:33 AM,57.2,51.8,82,29.77,6.2,SSW,11.5,-,N/A,,Mostly Cloudy,210,2012-10-03 04:33:00
6:39 AM,57.2,51.8,82,29.77,6.2,SSW,10.4,-,N/A,,Mostly Cloudy,210,2012-10-03 04:39:00
6:45 AM,57.2,51.8,82,29.77,6.2,SSW,11.5,-,N/A,,Partly Cloudy,200,2012-10-03 04:45:00
6:51 AM,57.2,51.8,82,29.77,6.2,SSW,11.5,-,N/A,,Scattered Clouds,210,2012-10-03 04:51:00
6:55 AM,57.2,51.8,82,29.77,6.2,SSW,11.5,-,N/A,,Partly Cloudy,210,2012-10-03 04:55:00
7:25 AM,57.2,51.8,82,29.74,6.2,SSW,11.5,-,N/A,,Mostly Cloudy,200,2012-10-03 05:25:00
7:29 AM,57.2,51.8,82,29.74,6.2,SSW,12.7,-,N/A,,Mostly Cloudy,210,2012-10-03 05:29:00
7:50 AM,57.2,51.8,82,29.74,6.2,SSW,11.5,-,N/A,,Mostly Cloudy,210,2012-10-03 05:50:00
7:55 AM,57.2,51.8,82,29.74,6.2,SSW,11.5,-,N/A,,Overcast,210,2012-10-03 05:55:00
7:59 AM,57.2,51.8,82,29.74,6.2,SSW,12.7,27.6,N/A,,Mostly Cloudy,210,2012-10-03 05:59:00
8:03 AM,57.2,51.8,82,29.74,6.2,SSW,12.7,27.6,N/A,,Mostly Cloudy,210,2012-10-03 06:03:00
8:08 AM,57.2,51.8,82,29.74,6.2,SSW,12.7,24.2,N/A,,Overcast,210,2012-10-03 06:08:00
8:12 AM,57.2,51.8,82,29.74,6.2,SSW,13.8,26.5,N/A,,Overcast,210,2012-10-03 06:12:00
8:25 AM,57.2,51.8,82,29.74,6.2,SSW,12.7,-,N/A,,Overcast,210,2012-10-03 06:25:00
8:55 AM,57.2,51.8,82,29.74,6.2,SSW,11.5,-,N/A,,Overcast,210,2012-10-03 06:55:00
9:25 AM,57.2,51.8,82,29.74,6.2,SSW,11.5,23.0,N/A,Rain,Light Rain,210,2012-10-03 07:25:00
9:55 AM,57.2,53.6,88,29.77,6.2,SSW,12.7,-,N/A,Rain,Light Rain,210,2012-10-03 07:55:00
10:15 AM,57.2,53.6,88,29.77,6.2,SSW,10.4,-,N/A,Rain,Rain,200,2012-10-03 08:15:00
10:25 AM,55.4,53.6,94,29.77,4.3,SSW,10.4,-,N/A,Rain,Rain Showers,210,2012-10-03 08:25:00
10:28 AM,55.4,53.6,94,29.77,5.6,SSW,10.4,-,N/A,Rain,Rain Showers,210,2012-10-03 08:28:00
10:31 AM,55.4,53.6,94,29.77,5.6,SSW,10.4,21.9,N/A,Rain,Rain Showers,210,2012-10-03 08:31:00
10:40 AM,55.4,53.6,94,29.77,6.2,SSW,10.4,21.9,N/A,Rain,Rain,210,2012-10-03 08:40:00
10:55 AM,57.2,53.6,88,29.77,6.2,SSW,11.5,23.0,N/A,,Mostly Cloudy,210,2012-10-03 08:55:00
11:06 AM,57.2,53.6,88,29.77,4.3,SW,12.7,-,N/A,Rain,Drizzle,220,2012-10-03 09:06:00
11:07 AM,57.2,53.6,88,29.77,6.2,SW,13.8,-,N/A,,Drizzle,220,2012-10-03 09:07:00
11:16 AM,57.2,53.6,88,29.77,6.2,SW,13.8,-,N/A,,Mostly Cloudy,220,2012-10-03 09:16:00
11:20 AM,57.2,53.6,88,29.77,6.2,SW,13.8,-,N/A,Rain,Light Rain,220,2012-10-03 09:20:00
11:25 AM,57.2,53.6,88,29.77,6.2,SW,13.8,-,N/A,Rain,Light Rain,220,2012-10-03 09:25:00
11:29 AM,55.4,53.6,94,29.77,4.3,SW,15.0,-,N/A,Rain,Light Rain Showers,220,2012-10-03 09:29:00
11:32 AM,55.4,53.6,94,29.77,6.2,SW,17.3,-,N/A,Rain,Light Rain,230,2012-10-03 09:32:00
11:55 AM,55.4,53.6,94,29.77,6.2,SW,10.4,-,N/A,Rain,Light Rain,220,2012-10-03 09:55:00
12:25 PM,57.2,53.6,88,29.77,6.2,SSW,11.5,-,N/A,,Overcast,210,2012-10-03 10:25:00
12:41 PM,59.0,55.4,88,29.77,6.2,SW,13.8,-,N/A,,Mostly Cloudy,220,2012-10-03 10:41:00
12:55 PM,59.0,53.6,82,29.77,6.2,SW,13.8,-,N/A,,Overcast,220,2012-10-03 10:55:00
1:25 PM,59.0,53.6,82,29.77,6.2,SW,13.8,-,N/A,Rain,Light Rain,220,2012-10-03 11:25:00
1:33 PM,59.0,53.6,82,29.77,6.2,SW,15.0,26.5,N/A,,Mostly Cloudy,220,2012-10-03 11:33:00
1:55 PM,59.0,51.8,77,29.77,6.2,SW,12.7,-,N/A,,Mostly Cloudy,220,2012-10-03 11:55:00
2:25 PM,59.0,51.8,77,29.77,6.2,SW,13.8,-,N/A,,Scattered Clouds,220,2012-10-03 12:25:00
2:44 PM,59.0,51.8,77,29.77,6.2,SW,12.7,-,N/A,,Overcast,220,2012-10-03 12:44:00
2:55 PM,59.0,51.8,77,29.77,6.2,SW,12.7,-,N/A,,Mostly Cloudy,220,2012-10-03 12:55:00
3:25 PM,59.0,51.8,77,29.77,6.2,SW,12.7,-,N/A,,Overcast,220,2012-10-03 13:25:00
3:35 PM,59.0,51.8,77,29.77,6.2,SW,10.4,21.9,N/A,Rain,Light Rain,220,2012-10-03 13:35:00
3:55 PM,57.2,53.6,88,29.77,5.6,SW,11.5,-,N/A,Rain,Rain Showers,230,2012-10-03 13:55:00
4:25 PM,55.4,53.6,94,29.77,4.3,WSW,11.5,-,N/A,Rain,Rain,240,2012-10-03 14:25:00
4:55 PM,55.4,53.6,94,29.77,5.6,SW,10.4,-,N/A,Rain,Rain,220,2012-10-03 14:55:00
5:25 PM,55.4,53.6,94,29.77,6.2,SW,10.4,-,N/A,Rain,Light Rain,220,2012-10-03 15:25:00
5:55 PM,53.6,51.8,94,29.77,6.2,SW,10.4,-,N/A,Rain,Light Rain Showers,220,2012-10-03 15:55:00
6:25 PM,53.6,51.8,94,29.77,6.2,SW,11.5,-,N/A,Rain,Light Rain Showers,230,2012-10-03 16:25:00
6:55 PM,53.6,51.8,94,29.77,6.2,SW,11.5,-,N/A,Rain,Light Rain Showers,230,2012-10-03 16:55:00
7:25 PM,53.6,51.8,94,29.77,6.2,SW,10.4,-,N/A,Rain,Light Rain Showers,230,2012-10-03 17:25:00
7:55 PM,51.8,50.0,94,29.74,6.2,SW,6.9,-,N/A,Rain,Light Rain,220,2012-10-03 17:55:00
8:25 PM,51.8,50.0,94,29.74,6.2,SSW,6.9,-,N/A,,Drizzle,200,2012-10-03 18:25:00
8:55 PM,51.8,51.8,100,29.74,6.2,South,5.8,-,N/A,Rain,Light Rain,180,2012-10-03 18:55:00
9:25 PM,53.6,50.0,88,29.74,6.2,South,8.1,-,N/A,,Drizzle,190,2012-10-03 19:25:00
9:55 PM,51.8,50.0,94,29.74,6.2,SSW,5.8,-,N/A,,Light Drizzle,200,2012-10-03 19:55:00
10:25 PM,51.8,50.0,94,29.74,6.2,SW,5.8,-,N/A,,Overcast,220,2012-10-03 20:25:00
10:55 PM,51.8,50.0,94,29.74,4.3,SW,8.1,-,N/A,Rain,Light Rain,220,2012-10-03 20:55:00
11:25 PM,51.8,50.0,94,29.74,6.2,SSW,8.1,-,N/A,,Light Drizzle,210,2012-10-03 21:25:00
11:55 PM,51.8,50.0,94,29.74,6.2,SSW,4.6,-,N/A,,Overcast,200,2012-10-03 21:55:00